Flag for Austria Weather past 2 weeks in Waidhofen an der Ybbs, Lower Austria, Austria

Now
48 °F

Cool.


Feels Like: 48 °F
Forecast: 51 / 74 °F
Wind: No wind

Location: Amstetten

Current Time: Aug 29, 2014 at 5:30:23 AM

Latest Report: Aug 29, 2014 at 4:00 AM


Visibility: N/A

Pressure: 30.13 "Hg

Humidity: 99%

Dew point: 48 °F

Location of Waidhofen an der YbbsLocation

Historic Weather in Waidhofen an der Ybbs — Graph

°F

Waidhofen an der Ybbs temperature yesterday

Maximum temperature yesterday: 72 °F (at 5:00 PM)
Minimum temperature yesterday: 46 °F (at 6:00 AM)
Average temperature yesterday: 58 °F

Past Weeks' High & Low Weather Summary

 TemperatureHumidityPressure
High77 °F (Aug 18, 6:00 PM)100% (Aug 28, 8:00 AM)30.17 "Hg (Aug 28, 8:00 AM)
Low44 °F (Aug 25, 7:00 AM)36% (Aug 25, 4:00 PM)29.75 "Hg (Aug 26, 5:00 PM)
Average60 °F82%29.99 "Hg
* Reported Aug 14 4:00 AM — Aug 29 4:00 AM, Waidhofen an der Ybbs, Weather by CustomWeather, © 2014

Note: Actual official high and low records may vary slightly from our data, if they occured in-between our weather recording intervals... More about our weather records

Advertising

Waidhofen an der Ybbs weather history for previous 24 hours

 ConditionsComfort  
Time TempWeatherWind HumidityBarometerVisibility
4:00 AM
Aug 29
48 °FCool.No wind99%30.13 "HgN/A
3:00 AM49 °FCool.No wind97%30.13 "HgN/A
2:00 AM51 °FCool.No wind97%30.13 "HgN/A
1:00 AM51 °FCool.No wind96%30.11 "HgN/A
12:00 AM53 °FCool.No wind95%30.11 "HgN/A
11:00 PM
Aug 28
54 °FCool.No wind93%30.10 "HgN/A
10:00 PM56 °FCool.No wind90%30.09 "HgN/A
9:00 PM58 °FCool.1 mph85%30.08 "HgN/A
8:00 PM63 °FMild.No wind75%30.05 "HgN/A
7:00 PM70 °FMild.No wind55%30.04 "HgN/A
6:00 PM72 °FMild.1 mph44%30.04 "HgN/A
5:00 PM72 °FMild.1 mph39%30.05 "HgN/A
4:00 PM72 °FMild.1 mph41%30.06 "HgN/A
3:00 PM71 °FMild.1 mph36%30.08 "HgN/A
2:00 PM69 °FMild.1 mph45%30.09 "HgN/A
1:00 PM67 °FMild.1 mph53%30.10 "HgN/A
12:00 PM63 °FMild.1 mph69%30.12 "HgN/A
11:00 AM60 °FCool.1 mph81%30.14 "HgN/A
10:00 AM56 °FCool.1 mph89%30.15 "HgN/A
9:00 AM53 °FCool.1 mph97%30.15 "HgN/A
8:00 AM49 °FOvercast.No wind100%30.15 "HgN/A
7:00 AM46 °FCool.1 mph98%30.15 "HgN/A
6:00 AM46 °FCool.1 mph99%30.15 "HgN/A
5:00 AM46 °FCool.No wind99%30.14 "HgN/A
Weather by CustomWeather, © 2014

See weather overviewHow to use our weather pages